Wind_Speed
28 28 28 28 29 30 30 29 29 29 30 29 28 27 22 15 7 5 6 6 9 18 23 24 29 36 39 39 39 40 39 40 39 38 38 39 38 38 36 33 30 28 28 28 28 28 28 27 27 27 27 27 28 29 30 29 27 25 23 23 23 23 23 24 24 24 24 24 23 23 23 23 23 23
29 29 29 28 28 30 30 31 31 30 29 29 28 27 27 24 15 7 6 8 10 15 22 26 28 32 38 39 38 40 40 40 40 39 39 39 39 37 36 35 33 29 28 28 28 28 28 27 26 26 26 25 24 24 24 24 23 23 23 23 22 22 22 23 23 23 23 23 23 24 24 24 24 24
30 29 29 29 28 29 30 30 31 31 30 30 29 28 26 26 23 18 9 7 12 18 22 27 29 30 34 38 38 38 39 39 39 38 39 39 38 36 35 35 34 32 29 28 28 28 27 27 26 26 26 25 25 24 24 24 23 23 23 23 23 23 23 23 23 23 23 23 24 24 24 25 25 25
30 30 30 30 30 30 29 29 29 30 31 31 30 29 28 25 24 23 15 7 9 17 22 27 30 30 31 35 37 37 38 38 37 38 39 38 37 36 35 35 34 34 32 29 28 28 28 27 26 26 26 25 25 24 24 24 23 23 24 24 24 24 24 24 24 24 25 25 25 25 25 25 25 25
29 30 30 31 31 31 29 29 28 29 30 31 30 29 28 27 25 23 18 10 8 10 17 23 27 30 30 31 35 37 35 35 36 36 37 38 37 37 36 36 35 35 34 32 29 27 27 27 26 26 26 25 25 24 24 24 24 24 24 24 24 25 25 25 25 25 26 26 26 26 26 26 26 26
27 28 29 31 32 31 30 30 29 29 29 29 28 28 27 26 27 25 21 15 10 8 12 17 21 25 29 30 33 36 36 36 36 36 37 38 38 38 37 37 37 35 35 34 30 27 27 27 26 26 25 25 25 25 24 24 24 24 24 24 24 24 25 25 25 26 26 26 27 26 26 27 27 27
24 25 26 29 31 30 30 30 30 29 29 28 27 28 28 27 27 28 25 20 15 11 11 15 19 23 27 30 31 34 36 35 35 36 38 38 38 38 38 38 37 35 34 34 31 29 27 27 26 26 25 24 25 25 24 24 25 25 24 24 25 25 25 26 26 26 27 27 27 27 27 27 27 27
23 24 25 27 29 29 29 30 30 30 29 29 28 27 28 28 28 28 27 24 21 16 12 14 19 22 25 28 28 30 32 32 33 35 35 35 36 37 37 37 36 34 33 32 31 29 27 26 26 25 24 24 24 25 25 25 25 25 24 24 24 25 25 26 26 26 26 27 27 27 27 27 27 27
25 25 25 26 26 27 28 29 30 30 29 29 28 27 27 28 28 27 26 26 25 21 15 14 18 20 22 24 25 28 30 29 29 30 31 32 34 34 35 35 34 33 31 30 29 28 28 28 28 28 26 25 24 24 24 25 24 24 24 24 24 25 26 26 26 26 26 26 26 27 27 27 27 27
29 29 28 28 27 27 28 29 30 30 30 29 28 28 28 27 27 25 24 25 24 22 19 16 16 19 22 23 23 26 29 29 28 28 27 28 31 32 32 32 31 31 31 30 29 28 30 31 31 29 27 25 24 24 24 25 25 24 24 24 25 25 25 25 25 25 25 25 26 26 26 27 27 27
30 29 29 28 27 28 28 28 28 29 30 29 29 29 29 28 26 24 24 24 23 22 19 16 17 19 21 22 22 24 27 27 26 27 26 25 27 29 29 29 29 29 30 31 31 31 30 29 29 28 26 25 24 23 24 24 24 24 24 24 25 25 25 24 24 24 25 25 25 26 26 26 26 27
31 30 30 29 28 29 29 29 29 28 27 28 29 30 29 28 26 25 24 23 22 21 19 17 18 18 19 20 20 21 22 22 24 29 28 25 25 28 28 29 29 29 30 31 31 31 29 28 29 28 27 27 26 24 24 24 24 24 23 24 24 24 24 23 24 24 24 25 25 25 25 25 26 26
30 30 31 31 31 30 30 30 30 29 28 27 27 29 29 28 27 26 24 23 21 19 18 17 17 16 16 20 20 19 24 28 28 29 27 24 25 26 26 27 29 30 30 30 30 30 29 28 28 29 30 30 28 26 25 24 24 23 23 23 23 23 23 23 24 24 24 24 25 25 25 25 25 25
30 31 31 31 31 31 31 30 30 30 29 29 29 29 30 30 29 26 24 23 22 20 16 17 17 14 14 20 25 25 29 32 29 26 26 25 23 22 20 21 26 29 29 27 28 29 29 28 28 30 31 30 28 26 25 24 24 24 24 24 23 22 22 22 23 23 23 24 24 24 24 24 24 25
30 31 31 31 30 31 31 31 30 29 28 29 30 31 30 31 33 31 27 24 24 22 19 19 20 17 16 23 27 28 29 30 28 28 28 25 22 20 17 14 19 27 30 27 26 28 29 29 30 31 30 29 26 24 24 24 24 24 24 23 22 21 22 22 22 22 23 23 23 23 24 24 24 25
31 30 30 30 30 31 31 31 31 30 30 30 30 30 29 30 32 34 33 30 27 25 22 20 21 22 22 24 27 29 29 29 30 29 27 26 25 23 20 16 17 22 28 28 24 24 27 29 30 29 28 27 25 25 25 24 23 22 21 21 21 21 22 22 22 22 23 23 23 23 24 24 25 26
31 30 29 28 29 30 31 31 31 31 31 31 30 30 30 30 32 34 37 36 34 32 29 25 25 28 28 25 28 34 33 29 28 27 26 27 27 24 22 21 19 17 23 28 23 20 23 27 28 28 27 26 26 26 25 23 20 19 20 21 22 22 22 22 22 22 22 23 23 24 24 24 25 26
32 32 30 28 27 28 29 30 30 30 29 29 30 31 31 33 35 36 38 38 37 36 34 32 31 34 34 32 33 34 33 31 30 30 29 28 26 24 21 20 18 16 21 27 22 15 19 24 24 25 25 24 25 26 25 23 21 20 21 22 21 21 22 22 21 22 22 22 23 23 24 24 25 26
34 34 32 31 30 29 30 30 30 30 30 29 29 30 31 33 34 35 37 38 37 36 35 36 36 36 36 36 34 32 32 35 35 33 32 30 26 24 19 16 18 19 21 25 21 12 14 20 21 22 23 23 25 26 24 24 23 21 21 21 21 22 22 21 21 21 21 22 22 22 23 23 24 25
35 35 34 33 33 32 32 33 32 31 30 30 30 30 30 31 31 32 35 37 38 38 37 37 36 35 35 36 34 32 32 34 34 30 27 26 24 21 15 13 18 20 19 22 22 14 12 16 18 19 19 21 23 24 23 23 22 21 20 21 22 22 22 21 20 20 20 21 21 22 22 23 24 25
32 35 36 36 34 34 34 35 34 33 32 31 31 30 29 29 29 30 32 35 38 40 40 39 38 36 35 34 34 33 33 33 33 29 24 24 25 21 12 8 13 18 17 18 20 15 11 13 15 16 17 19 21 21 21 21 20 20 21 22 22 21 20 19 18 19 20 20 21 22 22 22 23 25
27 31 36 38 36 34 35 35 34 34 35 34 32 31 29 28 28 28 29 31 32 34 36 37 36 35 34 32 30 30 30 32 35 33 28 27 27 21 13 10 11 13 17 19 18 13 10 12 14 12 12 14 18 19 19 20 20 20 19 19 18 17 17 18 19 20 21 22 22 22 21 21 22 23
23 26 30 35 37 36 36 35 34 35 36 35 34 33 29 26 27 28 29 29 29 30 31 31 30 30 29 27 26 26 26 29 34 36 32 31 29 23 18 16 12 7 12 19 20 14 9 11 13 11 6 6 9 13 15 16 15 14 14 14 15 16 18 21 22 22 22 21 21 20 20 20 20 22
19 20 24 29 35 37 37 35 34 35 37 37 35 33 28 26 27 29 30 32 32 32 31 30 28 27 27 26 25 26 26 27 32 34 33 32 32 27 22 21 16 9 7 13 19 17 12 11 12 12 10 6 4 6 9 10 10 10 11 15 17 20 22 23 22 22 21 21 20 19 19 19 19 21
17 17 19 22 27 33 36 36 35 34 35 37 35 32 32 31 30 29 31 32 32 30 28 27 27 26 26 25 25 26 27 27 29 30 30 30 31 30 26 23 19 14 10 10 13 15 13 12 12 11 10 9 7 9 11 13 15 16 16 18 19 20 20 20 21 22 22 21 19 17 16 17 18 20
18 17 18 20 24 28 30 32 32 31 32 35 34 33 34 32 28 28 28 27 26 26 26 26 26 25 25 25 25 26 27 27 27 28 27 27 27 26 24 21 18 17 16 14 13 13 12 12 13 12 10 9 9 10 12 16 18 17 14 13 15 17 19 20 22 23 21 20 19 17 17 18 18 20
20 20 19 21 23 25 27 29 28 27 29 30 30 31 30 26 23 24 25 25 26 26 26 26 25 24 26 26 26 26 27 27 27 27 25 24 23 21 18 17 15 16 17 16 14 14 14 13 14 13 13 11 8 7 9 13 16 15 15 17 19 19 20 21 22 21 20 20 20 19 20 21 22 22
20 20 20 20 21 23 26 27 25 24 24 25 26 26 23 20 22 24 25 26 26 25 24 24 23 24 26 27 28 29 29 28 27 26 24 22 20 19 16 15 15 16 17 16 15 15 14 15 15 14 13 13 11 8 9 12 16 18 20 22 22 20 19 20 21 20 19 19 21 22 24 25 25 25
17 18 19 19 20 22 23 22 21 21 20 22 23 22 21 23 25 26 26 26 25 23 21 21 22 23 24 27 29 30 30 28 26 24 23 21 19 18 16 16 16 17 17 17 16 16 15 16 16 16 16 16 16 15 15 15 18 21 21 21 23 23 21 19 18 18 18 21 23 24 26 27 27 26
12 13 14 15 17 19 19 19 19 18 18 20 21 22 25 26 26 26 26 26 24 22 21 21 22 23 24 26 28 29 28 26 24 23 22 20 19 17 17 16 17 16 15 15 15 15 15 15 14 15 17 17 18 19 19 17 19 24 24 23 23 24 21 18 17 18 21 23 26 27 28 28 28 27
4 4 6 9 13 16 17 16 16 16 18 20 23 25 26 26 26 26 27 26 24 23 22 22 23 25 26 26 27 27 26 24 23 21 20 19 18 17 16 15 15 14 13 12 12 12 12 11 11 12 14 15 16 17 17 17 20 24 26 24 23 22 22 23 22 22 22 24 27 29 30 30 29 28
12 14 16 18 19 20 20 20 20 20 21 23 25 26 25 24 23 22 22 22 22 23 24 25 25 26 26 26 26 25 23 22 20 18 17 17 17 17 16 14 13 12 11 10 10 10 9 9 9 10 12 13 14 15 15 16 20 25 27 26 24 24 25 25 24 23 23 25 28 31 31 31 31 30
18 19 19 19 19 20 21 21 20 21 22 22 22 23 23 23 22 21 21 21 22 24 26 28 27 27 26 25 24 23 21 20 19 19 18 18 17 17 16 14 12 12 13 12 10 9 8 8 8 9 10 11 13 15 15 17 21 24 25 25 24 24 25 24 23 24 24 25 29 31 32 32 32 31
18 18 17 16 16 17 18 18 17 19 21 21 20 20 21 22 22 22 22 23 25 26 27 28 28 28 26 24 23 22 21 20 20 20 19 18 18 19 18 15 13 12 12 11 10 8 7 7 7 8 9 11 13 15 17 21 24 24 23 23 24 25 25 24 22 22 23 25 28 30 32 34 33 29
16 16 15 14 14 15 16 16 16 18 20 20 20 20 20 20 21 22 22 24 25 26 27 27 28 28 27 26 25 23 22 22 22 21 19 18 19 19 17 16 14 12 11 10 9 7 7 6 6 7 8 8 9 12 14 17 20 22 21 21 22 24 24 23 22 22 24 26 27 28 29 33 33 29
14 13 13 12 12 14 15 15 16 18 19 20 21 21 20 19 20 21 23 24 26 27 27 27 27 27 26 26 26 24 24 24 23 21 20 19 19 18 16 14 13 11 11 10 8 6 7 7 6 6 4 3 4 6 6 8 11 14 17 20 22 22 23 24 24 24 26 26 26 25 25 28 33 32
12 12 13 12 12 14 14 15 16 17 18 19 20 20 20 19 19 21 22 23 25 26 26 27 27 26 25 25 25 25 25 25 24 23 21 20 18 17 15 14 13 12 11 10 8 7 8 8 7 6 4 1 2 4 6 9 10 12 15 19 22 23 24 25 25 26 26 25 25 26 26 29 35 37
12 12 13 12 13 14 15 16 17 17 17 19 18 18 18 19 19 19 21 22 23 23 24 25 25 25 25 25 25 25 24 23 23 22 21 20 18 17 16 15 14 13 12 11 10 10 10 9 9 9 7 4 3 4 5 7 10 13 15 17 22 25 25 25 25 25 25 24 25 27 28 30 36 41
12 12 13 13 14 15 16 17 18 18 19 19 19 19 19 19 20 20 20 21 22 22 22 23 24 24 25 26 27 27 25 23 22 22 21 21 20 19 18 16 14 13 12 13 12 11 11 12 12 12 11 10 9 9 10 11 17 24 24 20 21 24 23 22 23 24 25 26 27 29 31 33 37 40
10 11 12 14 15 16 16 17 18 19 20 19 19 20 19 20 21 21 21 21 22 22 22 23 23 25 26 26 26 26 25 24 23 23 22 22 21 20 18 16 15 14 13 14 14 14 14 13 12 11 12 14 14 16 19 20 24 30 28 21 17 17 18 18 21 23 25 26 27 28 29 30 34 37
10 11 12 13 15 16 17 17 18 19 19 19 19 18 18 19 20 21 22 21 22 22 22 23 24 25 25 26 25 24 24 23 22 22 22 22 21 20 18 16 15 15 13 14 16 16 13 11 9 10 12 14 14 14 14 12 14 20 25 23 20 18 17 17 19 21 24 25 25 24 25 25 28 32
9 11 12 13 14 15 16 17 18 19 19 19 18 17 17 18 19 20 21 21 22 22 22 23 24 24 24 25 25 24 24 24 23 22 22 22 21 20 18 17 18 18 16 16 17 16 12 10 10 12 12 13 12 9 6 6 9 16 23 26 26 24 21 20 20 20 21 22 21 21 21 20 17 16
8 10 11 12 13 14 15 16 17 18 18 18 18 17 17 18 19 19 20 21 22 23 23 23 24 24 23 24 24 24 24 24 24 24 23 22 21 21 20 21 21 21 20 19 19 16 14 13 13 13 12 12 12 10 10 12 16 19 23 26 28 27 26 25 24 23 21 20 20 20 21 20 15 12
8 9 10 11 12 13 14 15 16 16 17 17 17 17 17 18 19 20 20 21 22 23 23 24 24 24 24 24 24 25 25 24 24 23 23 22 22 21 22 22 22 20 20 20 19 17 16 15 13 12 12 13 14 13 15 17 18 20 22 24 26 27 28 28 28 28 27 24 23 23 24 23 22 23
8 8 9 10 11 12 13 14 14 15 16 16 17 17 17 17 19 20 20 21 22 23 24 24 24 25 25 25 25 26 26 24 23 22 21 21 22 22 22 22 21 20 19 18 18 18 17 15 14 13 14 15 15 16 18 20 20 21 23 24 24 25 27 28 28 29 31 31 30 28 27 26 26 26
Wind_Direction
257 254 250 244 240 238 237 235 235 234 232 231 230 227 222 219 216 211 215 217 226 220 213 215 220 221 222 225 226 226 226 227 225 222 222 224 224 222 219 217 217 218 218 218 220 225 227 226 225 225 222 219 220 221 224 227 228 229 230 232 236 238 241 242 245 247 248 252 253 251 255 256 254 257
254 252 251 248 243 240 238 236 235 234 233 232 231 230 226 223 221 219 225 228 220 210 210 216 220 218 219 221 223 224 225 226 225 222 221 222 224 223 220 219 219 218 219 219 219 221 224 222 220 221 219 217 217 218 221 224 227 229 231 233 236 239 241 243 245 247 248 250 250 251 253 253 254 256
251 248 247 247 246 244 240 238 236 234 233 232 232 232 230 227 225 224 229 243 224 209 209 216 220 220 219 218 219 221 223 224 224 222 221 221 224 224 222 222 222 220 218 219 220 219 220 220 219 219 219 218 218 219 221 224 227 231 234 236 239 241 243 244 246 248 249 250 250 252 253 253 255 256
248 244 243 243 245 246 244 241 238 235 233 233 231 231 231 230 229 226 225 244 235 216 216 218 218 220 220 216 215 218 220 221 222 223 223 222 222 223 224 224 224 224 221 218 220 221 219 220 220 219 219 220 221 222 224 227 230 233 236 238 241 242 243 245 246 248 249 250 251 252 253 254 255 255
248 243 240 241 243 244 243 242 240 238 235 234 232 230 228 227 228 226 222 231 245 223 215 218 216 217 216 213 214 216 216 218 219 221 223 223 222 223 225 225 225 226 225 221 219 220 220 220 220 220 221 222 224 226 229 232 234 236 238 239 241 243 244 245 246 247 249 250 251 253 254 254 255 256
250 247 241 240 242 242 241 241 240 239 238 235 233 231 228 226 226 225 221 222 235 226 207 209 211 211 211 211 213 214 215 217 216 217 220 222 222 223 225 226 225 225 226 224 219 217 220 221 221 222 223 225 227 230 232 235 236 238 240 241 242 244 245 246 247 247 249 250 251 252 254 254 255 257
250 251 247 244 243 240 238 238 238 239 239 236 234 232 230 228 227 225 222 219 224 229 215 206 205 204 206 210 213 214 216 217 215 216 218 219 220 222 224 226 225 224 225 225 220 216 217 220 222 224 226 228 230 233 235 236 238 239 240 242 243 244 245 246 247 247 248 250 251 252 254 255 256 256
250 250 248 247 246 240 234 233 234 235 236 236 234 232 230 228 228 226 223 220 222 227 223 212 211 207 204 209 213 212 214 215 215 216 217 217 218 220 222 225 227 226 225 224 220 215 214 217 221 225 228 231 234 235 236 237 238 240 240 241 243 244 245 246 247 248 249 250 251 252 254 255 256 257
250 251 250 249 249 245 237 231 228 228 231 232 232 232 230 228 228 226 222 220 222 223 220 212 213 210 204 207 211 210 209 210 212 215 217 217 217 219 222 225 227 227 224 220 216 213 214 217 221 226 230 233 235 237 238 239 239 240 240 241 243 244 246 247 248 249 249 250 251 252 253 254 256 256
251 251 251 250 248 246 242 235 227 223 224 226 227 228 229 227 225 223 220 218 218 219 219 211 205 204 203 204 207 209 207 205 205 208 212 216 217 218 220 222 224 225 222 218 214 214 217 221 225 229 230 231 234 236 238 240 241 241 241 241 243 245 246 247 248 249 250 251 252 253 254 255 256 257
249 250 250 249 246 244 243 240 233 224 220 220 223 225 226 225 222 218 215 214 212 214 215 209 203 203 203 204 207 208 205 205 206 205 205 210 214 215 217 218 219 220 221 221 219 220 224 226 227 228 228 229 232 234 237 239 241 242 243 243 244 245 246 247 248 249 250 251 252 253 255 256 256 258
243 247 249 248 247 244 242 242 241 234 224 218 219 222 224 222 217 213 211 209 209 210 209 207 206 203 200 203 206 203 198 200 209 209 206 207 209 211 214 217 217 217 219 222 224 226 227 227 227 228 229 230 230 232 235 238 240 243 244 244 245 245 246 247 248 250 251 253 254 255 256 257 258 259
242 245 247 247 247 245 242 242 243 242 237 228 222 220 219 217 214 211 208 204 203 206 207 207 204 198 197 199 198 195 197 202 209 208 206 210 211 209 212 217 218 218 218 220 224 226 225 226 229 232 232 232 231 231 233 234 236 239 240 243 246 247 248 249 250 252 254 255 256 258 258 259 260 261
243 243 244 246 246 245 243 241 239 239 239 235 230 225 219 214 210 208 206 202 200 202 205 207 203 197 201 203 200 200 205 208 208 203 201 207 208 203 209 220 221 219 217 218 222 225 225 227 232 234 234 233 232 230 231 232 234 236 239 243 246 249 250 252 253 254 256 257 258 259 261 261 262 263
241 240 240 242 244 243 241 240 239 239 238 236 233 229 224 219 214 210 207 203 200 200 203 208 206 203 209 209 207 208 210 209 207 205 204 203 198 194 201 216 220 218 216 216 221 226 227 228 230 232 234 234 232 233 237 240 240 241 243 245 247 250 253 254 256 257 258 259 261 262 263 264 264 265
239 239 238 238 239 239 239 239 239 239 239 238 235 230 227 224 222 218 213 210 207 202 203 208 209 210 214 213 210 211 211 208 207 207 206 203 199 199 203 210 215 216 214 213 218 225 224 224 227 229 232 232 233 239 244 245 244 244 244 247 249 253 256 257 259 260 260 262 263 264 265 265 265 265
238 238 237 236 236 236 236 236 236 235 234 234 234 233 231 230 230 227 222 220 218 213 209 210 212 214 215 215 215 215 212 207 204 205 206 206 205 205 209 212 212 210 206 206 210 217 217 217 223 227 231 235 240 245 245 242 241 243 246 250 253 255 258 259 260 261 262 264 265 265 266 265 266 266
239 237 235 234 233 233 231 229 229 229 229 229 230 232 233 232 231 228 226 224 223 220 216 214 217 219 218 219 221 219 213 208 205 204 206 207 206 209 214 216 210 202 200 201 202 209 213 213 220 229 232 236 240 242 242 241 243 246 249 253 257 258 260 261 262 263 264 265 267 267 267 267 267 268
239 237 233 231 231 230 228 228 227 227 227 226 225 227 229 230 228 225 224 224 224 223 221 220 222 222 222 222 223 219 213 212 212 211 210 209 208 208 209 207 202 200 200 200 199 208 217 215 221 230 231 233 238 241 244 247 247 248 251 254 257 259 261 263 264 265 266 266 268 268 268 269 269 269
236 234 231 228 228 228 229 231 231 229 225 222 221 223 225 226 226 226 226 226 226 225 224 225 225 225 226 225 223 220 216 214 212 210 208 205 201 196 189 184 190 193 196 200 201 207 218 216 223 234 235 237 243 247 248 247 245 246 250 254 257 260 261 263 264 266 267 268 268 268 268 269 270 271
235 232 229 226 225 226 229 231 231 227 222 219 219 221 222 223 224 227 228 227 227 226 225 226 227 227 228 225 222 221 219 215 208 200 195 195 191 186 183 181 185 189 193 201 204 209 218 219 228 243 248 248 252 253 253 252 254 257 257 256 259 260 260 261 263 267 269 269 269 270 270 271 272 273
240 234 231 228 225 224 228 230 228 225 220 217 217 219 219 219 221 222 222 221 221 221 223 225 226 225 225 222 219 216 214 213 209 201 196 194 188 185 190 185 177 191 205 209 208 210 220 226 231 243 254 258 258 256 257 260 259 258 256 251 248 248 252 259 265 268 269 269 270 271 271 272 273 272
245 237 234 231 227 225 227 227 225 224 220 216 217 218 215 215 218 218 216 214 213 212 214 215 215 216 217 215 213 208 205 208 210 208 204 198 191 190 191 181 168 186 215 216 216 213 208 213 220 223 229 261 267 256 251 252 249 245 244 240 239 247 260 269 271 270 270 271 272 272 271 272 272 272
251 240 234 230 226 225 226 225 223 223 221 217 217 216 212 213 217 215 211 211 211 208 206 204 203 205 207 206 205 204 201 203 206 207 206 202 197 194 188 182 183 193 206 213 215 210 196 196 207 210 209 222 268 262 245 237 234 240 249 254 260 268 273 273 273 274 278 281 279 275 271 269 269 270
247 244 237 229 224 223 223 224 222 219 217 218 217 215 214 216 217 212 208 209 207 202 199 196 194 194 195 194 195 197 197 196 196 199 202 204 203 200 195 190 192 200 202 199 198 194 189 193 199 200 204 216 241 261 264 262 262 265 268 269 271 274 275 277 282 287 290 291 289 284 279 277 274 271
236 240 238 233 229 224 220 221 221 217 217 218 215 213 216 217 214 208 203 200 196 192 187 184 181 180 180 181 184 187 187 185 187 194 199 201 202 204 206 204 204 212 215 206 198 198 200 203 206 204 203 212 234 255 267 274 278 279 277 275 276 279 283 287 291 293 295 297 298 298 295 290 282 275
230 235 237 235 234 228 220 219 220 219 221 220 213 211 211 208 201 197 192 186 183 180 175 171 168 168 171 172 173 175 176 177 183 190 193 195 197 200 205 211 218 226 224 216 216 221 219 217 222 224 219 217 227 248 262 270 276 278 280 284 286 286 289 293 295 296 299 303 306 307 304 297 290 284
229 234 238 237 234 228 221 217 215 214 217 217 210 204 197 185 181 181 178 176 174 169 166 164 162 164 168 169 170 172 174 176 181 185 186 189 194 198 204 213 221 227 229 229 232 234 230 227 230 233 230 227 227 236 253 265 272 277 285 292 294 293 296 300 300 301 304 307 308 307 303 298 296 293
232 239 245 243 234 223 212 205 202 203 207 206 200 187 172 167 171 172 171 169 166 163 163 163 161 162 166 169 171 173 173 174 177 181 185 188 195 202 211 219 224 227 231 235 238 240 240 239 238 239 243 243 241 242 247 257 271 280 286 290 294 298 301 303 302 304 307 308 305 302 298 294 292 290
234 242 245 234 217 202 190 185 187 190 191 188 180 167 160 164 169 169 168 167 165 163 163 160 159 160 164 168 170 170 171 173 177 182 187 192 199 207 212 217 222 225 227 232 237 240 241 243 242 242 245 247 247 248 250 253 267 279 284 286 291 297 302 307 308 307 307 306 303 300 296 291 287 284
174 175 169 162 156 152 151 157 162 162 162 161 156 152 157 164 169 171 172 171 168 164 160 158 159 161 164 166 168 169 173 178 183 188 194 198 201 204 206 210 216 220 223 226 229 228 229 230 229 232 239 244 247 254 257 256 261 273 282 284 283 286 294 303 307 306 306 305 300 295 291 286 283 280
114 114 116 117 119 123 125 127 132 135 139 142 144 148 154 159 161 163 165 165 163 161 159 158 158 160 163 166 169 172 178 183 188 194 198 200 199 197 197 202 206 206 204 204 206 207 209 216 223 233 242 248 253 261 262 257 259 267 276 282 281 280 287 297 300 302 305 301 291 286 283 281 280 279
111 107 106 107 111 115 115 115 117 122 125 129 135 142 147 150 152 156 159 159 159 161 162 161 160 161 162 166 170 174 179 185 191 193 193 194 194 191 194 200 199 191 186 186 191 200 210 221 231 241 250 255 260 263 258 256 260 263 269 278 281 281 286 291 292 294 296 290 283 282 282 281 282 284
108 100 96 97 104 109 111 112 115 119 122 124 127 134 142 150 154 158 162 163 162 164 166 164 163 164 164 166 170 174 178 182 186 187 189 191 191 190 194 198 195 188 187 188 190 199 214 223 230 246 260 264 267 265 256 253 260 266 270 275 277 278 284 288 287 287 286 282 281 284 286 287 288 290
102 100 100 99 105 112 115 118 122 127 130 130 132 136 142 151 158 160 163 166 166 166 166 166 166 168 169 170 173 176 178 179 180 183 186 190 193 194 198 199 196 192 194 197 197 203 216 225 238 258 273 280 284 282 267 251 254 263 269 272 273 275 280 285 287 284 284 284 284 283 285 289 292 294
96 103 108 108 114 119 120 125 131 134 137 139 141 144 147 153 162 166 168 170 171 170 169 169 170 172 174 175 177 179 180 178 177 180 185 189 193 196 200 203 200 196 202 208 208 212 222 233 247 259 274 313 318 306 288 261 257 263 264 268 274 277 279 286 290 287 285 288 286 281 278 283 290 293
104 110 114 115 124 127 128 134 138 139 142 145 148 152 156 160 166 170 171 173 174 174 174 175 176 177 178 179 178 179 180 180 179 181 185 189 193 195 199 205 204 204 211 215 217 225 232 238 244 241 234 256 291 276 278 283 279 263 253 261 272 279 283 289 291 289 289 290 287 282 280 281 286 291
120 123 123 125 133 135 138 143 144 144 147 150 152 157 161 164 167 171 173 175 176 177 178 179 180 182 182 181 179 178 179 180 182 184 187 189 192 194 199 205 208 211 217 222 226 233 235 235 241 238 225 210 228 255 273 285 277 265 258 262 272 281 287 289 286 286 291 293 290 289 286 283 285 290
133 136 138 141 144 147 150 152 152 153 155 157 161 164 165 167 169 171 174 177 179 181 183 184 185 185 185 184 182 181 180 181 184 187 190 193 196 199 203 208 211 213 221 231 236 236 234 234 240 239 231 228 237 255 271 278 278 280 284 283 276 277 282 285 284 287 292 295 295 295 293 290 291 294
142 146 150 152 154 157 159 160 160 161 162 165 169 172 173 174 175 176 178 180 181 184 186 187 187 186 184 185 185 184 184 187 190 193 195 198 202 205 207 212 216 216 221 232 238 239 238 240 242 241 244 248 257 270 278 279 278 281 288 294 288 278 274 277 281 285 289 293 296 296 295 296 299 301
151 156 160 163 164 166 168 168 168 168 169 172 176 178 180 181 181 181 183 184 184 185 186 186 186 186 186 188 189 189 190 192 195 199 201 202 206 211 213 216 219 219 220 229 238 243 244 245 247 252 259 264 270 276 280 277 276 282 290 297 300 295 285 277 276 277 282 288 292 291 291 294 296 298
163 165 169 173 176 176 176 177 177 177 178 181 183 184 186 186 185 184 184 186 187 188 187 187 188 190 191 193 195 196 197 197 199 203 205 206 208 210 212 215 219 221 222 230 242 250 254 257 261 265 269 272 272 270 266 262 273 285 292 297 302 303 300 294 288 284 283 284 284 284 289 294 295 295
175 175 177 181 185 185 185 186 186 185 186 188 190 191 189 188 187 186 187 187 189 190 192 192 193 195 197 199 200 202 203 204 205 206 207 209 210 210 213 219 224 227 231 239 251 260 262 264 268 271 273 274 270 261 256 266 275 282 288 295 299 302 303 304 304 302 297 288 283 284 286 283 278 277
185 185 184 187 192 194 196 196 195 196 196 196 196 198 197 194 194 195 196 195 195 196 197 198 199 201 203 204 204 205 208 211 212 212 213 215 217 219 222 226 230 234 238 245 256 264 266 269 273 273 271 273 271 263 261 269 278 281 285 290 294 298 304 310 313 313 310 304 303 307 303 289 276 275
191 189 190 193 197 200 203 204 204 205 205 205 205 206 205 204 203 204 204 205 204 204 204 204 205 207 208 208 208 210 213 215 217 219 221 222 224 227 230 231 234 238 242 246 254 262 268 274 274 270 269 273 274 270 267 271 276 279 282 287 290 296 304 310 311 311 309 306 309 317 318 308 298 291
Height
720 721 722 723 723 723 725 727 728 730 730 731 732 733 734 736 739 741 743 741 738 738 740 741 742 745 747 749 752 753 755 756 758 760 761 762 765 767 771 774 776 779 780 781 782 783 784 785 787 789 790 792 794 796 798 800 802 803 805 807 809 810 812 813 814 815 815 816 817 818 819 819 820 821
717 718 719 720 720 721 722 723 725 726 727 728 728 729 730 732 734 735 737 736 734 735 737 737 738 740 743 746 748 750 751 753 755 757 757 759 761 764 767 770 772 775 777 778 779 780 781 782 784 786 787 789 791 793 795 797 799 800 802 803 805 806 808 809 810 811 812 813 814 815 816 817 817 818
713 714 715 716 717 718 718 719 721 722 724 724 725 726 727 728 729 731 732 731 730 731 733 733 735 737 739 742 745 747 749 751 753 754 755 756 758 761 764 766 768 771 773 775 776 777 778 780 782 783 785 786 788 790 792 794 796 797 799 800 801 803 804 805 806 807 808 809 811 812 812 813 814 814
709 710 711 712 713 714 715 716 717 718 720 721 721 722 723 724 726 727 729 729 727 728 730 731 732 734 737 739 742 744 746 748 751 752 753 754 756 759 761 763 765 767 769 771 772 774 775 777 779 781 782 784 785 787 789 791 792 794 796 797 798 799 800 802 803 804 805 806 807 808 809 810 810 811
706 706 706 707 708 710 711 712 714 715 716 717 717 718 719 720 722 723 725 726 726 727 728 729 730 733 735 737 739 741 744 746 749 751 752 753 754 755 757 758 760 762 764 766 768 770 772 774 776 778 779 781 783 784 786 787 789 790 792 793 794 796 797 798 799 800 801 802 803 804 805 806 806 807
703 703 703 703 703 705 706 708 709 711 712 713 714 715 715 716 717 719 720 722 723 725 727 728 729 731 733 734 736 738 740 743 746 748 749 750 751 752 753 754 756 758 760 762 764 767 769 771 773 775 776 778 780 781 782 784 785 787 788 789 791 792 793 794 795 797 798 798 799 800 801 802 802 803
699 700 700 700 700 701 702 703 705 707 708 710 710 711 712 712 713 715 717 718 720 722 724 725 726 728 730 731 733 735 738 741 744 745 746 747 749 750 751 751 752 754 756 758 760 763 765 768 770 772 774 775 776 778 779 780 782 783 784 785 787 788 789 791 791 793 794 794 795 796 797 797 798 799
695 696 696 697 698 698 698 698 700 702 704 706 707 707 708 709 710 712 714 715 717 719 721 723 724 725 727 728 730 733 736 739 742 743 745 746 747 748 749 749 749 751 753 755 757 759 762 764 767 769 770 771 773 774 776 777 778 779 780 781 783 784 785 786 787 788 789 790 791 792 793 793 794 794
690 691 692 693 695 695 695 694 695 697 699 701 703 704 705 706 707 709 711 713 715 717 719 720 722 723 725 727 728 731 733 737 740 742 744 744 745 746 747 747 748 749 751 752 754 756 758 760 762 764 766 768 770 771 772 774 774 775 776 777 779 780 781 782 783 784 785 786 787 787 788 789 789 790
686 687 687 689 690 691 691 691 691 692 694 697 699 700 702 703 705 706 708 710 712 714 717 718 720 721 723 724 726 728 730 733 737 739 742 743 743 744 744 745 746 747 749 750 751 752 754 756 758 760 762 764 766 767 769 771 771 772 773 774 775 777 778 778 779 780 781 781 782 783 783 784 785 786
681 682 683 684 685 686 687 688 688 688 690 692 694 696 698 700 702 704 705 707 709 712 714 716 718 719 721 723 724 726 729 732 734 736 738 739 740 741 742 742 744 745 747 747 748 749 751 753 755 757 759 760 762 764 765 767 768 769 770 771 772 773 773 774 775 776 776 777 778 778 779 779 780 781
677 678 679 680 681 682 683 684 685 685 686 688 689 692 695 697 699 700 702 704 707 709 711 713 715 717 719 721 723 725 728 729 730 731 733 735 736 738 739 740 741 742 743 744 745 746 748 750 752 754 755 756 758 759 761 762 764 765 766 767 768 768 769 770 770 771 772 773 773 774 774 775 775 776
673 673 674 675 676 677 678 680 681 682 683 685 686 687 690 693 695 697 699 701 703 706 708 710 712 714 716 717 720 722 722 722 722 725 729 732 733 735 737 737 738 739 740 742 742 743 744 747 749 751 751 752 754 755 756 758 759 761 762 763 764 764 765 765 766 767 768 768 769 769 770 770 771 771
668 668 669 670 671 673 674 675 677 678 680 681 682 684 685 687 690 693 695 697 699 702 705 707 708 711 712 713 714 715 715 717 720 723 726 727 730 733 735 735 735 736 738 739 740 740 742 744 746 747 748 748 750 751 752 754 755 757 758 759 760 761 761 761 762 763 764 764 765 765 766 766 767 767
663 663 664 665 667 668 670 671 672 674 676 677 679 680 682 683 685 687 690 692 694 697 700 702 704 706 707 707 709 710 712 714 717 719 721 723 726 728 730 730 731 732 735 737 737 737 739 741 742 743 744 746 748 748 749 750 752 753 755 756 757 757 758 758 758 759 760 760 761 761 762 762 763 763
658 659 659 660 662 663 665 667 668 670 672 673 675 677 678 680 682 683 685 687 689 692 694 697 700 701 701 703 705 706 708 710 713 715 718 720 721 722 723 724 725 727 730 733 735 735 736 738 739 740 741 744 745 746 746 747 749 750 752 753 754 754 755 755 755 756 756 757 757 758 758 758 759 759
653 654 655 656 657 658 660 662 664 665 667 669 671 673 675 677 678 680 681 682 684 686 689 692 694 695 697 699 700 701 704 707 710 712 714 715 716 718 719 720 722 724 727 729 731 732 734 736 737 737 739 741 743 744 744 744 746 747 749 750 751 751 752 752 752 752 753 753 753 754 754 754 755 755
647 648 650 651 652 654 655 657 659 661 663 665 667 669 671 672 673 675 677 678 680 682 683 686 688 690 692 694 696 698 701 704 705 707 709 711 713 715 717 719 721 724 725 726 728 730 731 733 734 735 736 738 740 740 741 742 743 744 745 747 747 748 748 748 748 749 749 749 750 750 750 751 750 750
640 641 643 645 646 648 650 652 654 656 658 661 663 664 666 667 668 670 671 674 677 679 680 681 683 686 688 690 693 696 698 700 701 703 706 709 712 714 716 718 720 722 723 724 726 727 729 731 732 733 734 736 737 737 739 739 739 740 741 743 744 745 745 745 745 745 745 746 746 746 747 747 746 746
633 635 637 638 640 642 644 646 649 651 654 656 658 659 661 662 664 665 667 670 673 675 677 678 680 683 685 688 690 693 695 697 700 703 706 708 710 712 715 716 718 719 721 722 723 725 727 729 730 731 733 734 733 734 736 736 737 737 738 739 740 741 741 741 741 742 742 742 743 743 743 743 743 742
627 628 630 631 634 636 638 640 643 646 649 651 653 654 656 658 659 661 663 666 669 671 673 675 677 680 682 685 687 689 692 694 697 700 703 705 707 709 712 714 716 717 719 720 722 723 724 727 729 730 731 731 731 731 733 733 733 734 734 736 737 737 738 738 738 738 739 739 739 739 739 739 738 738
622 623 624 625 628 630 632 635 638 641 644 646 647 649 651 653 654 656 659 662 665 667 670 672 674 677 679 681 684 687 689 691 693 695 697 700 703 706 708 711 714 716 717 718 720 721 721 724 727 729 730 729 728 728 729 729 730 730 730 731 732 733 734 735 735 735 735 735 735 734 734 734 734 733
618 618 619 621 623 624 627 630 633 636 638 640 642 644 646 648 648 651 655 658 661 663 666 669 671 673 676 679 682 684 687 688 689 692 694 696 699 702 704 708 712 714 714 715 717 718 719 721 724 726 728 728 726 726 726 726 726 726 727 728 729 731 732 732 731 731 731 730 730 729 729 729 729 729
614 615 615 616 618 620 623 625 628 631 633 635 637 639 641 642 644 647 650 653 655 658 661 664 667 669 672 676 679 682 684 685 687 689 691 693 695 698 701 704 707 709 711 712 714 715 717 719 721 722 725 727 726 724 724 724 724 725 725 726 728 729 729 728 728 727 726 726 725 725 725 725 725 725
611 611 612 613 614 617 619 621 623 626 628 630 633 635 636 638 641 644 646 649 652 655 658 661 664 666 669 672 675 678 681 682 685 688 690 692 694 696 699 701 704 707 709 710 712 713 714 716 718 719 722 725 725 724 723 722 722 723 723 724 725 725 725 725 724 723 722 721 720 720 720 720 720 720
607 608 609 610 612 614 616 618 620 622 624 626 629 631 633 635 639 641 644 647 651 653 656 658 661 664 667 670 673 675 678 680 683 687 689 691 694 695 697 700 702 705 707 709 710 711 712 713 715 717 719 722 723 723 722 720 718 719 720 721 722 722 722 721 720 718 717 716 715 715 714 715 715 715
603 605 606 608 609 611 613 615 617 620 622 624 626 628 631 634 637 639 643 646 649 651 653 656 659 662 665 668 671 673 676 679 682 685 688 691 693 695 697 699 701 703 705 706 708 709 710 711 712 714 716 719 721 722 721 718 716 716 717 717 718 718 718 717 716 714 713 711 710 709 709 709 709 710
601 602 603 605 606 608 610 612 615 617 620 622 624 627 630 633 635 638 641 644 647 650 652 655 658 661 663 666 669 672 675 678 682 684 687 690 692 694 696 698 700 702 703 704 706 707 707 708 709 711 713 716 718 719 718 715 713 713 713 713 713 713 713 713 711 709 708 706 705 705 705 705 705 705
600 601 601 603 604 606 608 611 613 616 618 620 623 626 629 631 634 637 640 643 646 649 652 655 657 660 663 666 669 671 674 678 681 684 686 689 691 693 695 696 698 700 701 702 703 704 705 705 706 708 711 713 714 715 714 713 711 710 710 710 709 708 708 708 707 705 704 703 702 702 703 702 702 702
600 600 601 602 603 605 607 610 613 615 617 620 623 626 628 630 633 637 640 643 646 648 651 655 657 660 663 666 669 672 675 677 680 683 685 688 690 691 693 695 697 698 699 700 701 702 702 703 704 706 708 710 711 711 711 711 709 707 707 707 707 705 703 703 703 701 700 699 699 699 700 700 699 699
601 601 601 602 603 605 608 610 613 616 618 621 623 626 628 631 633 637 640 642 645 648 651 654 657 660 663 666 669 672 675 677 680 682 685 686 688 690 692 694 695 696 697 698 699 700 700 701 703 704 705 707 707 707 708 709 707 705 704 705 705 703 700 698 698 697 697 697 697 697 697 697 696 695
602 603 603 604 605 607 609 612 615 617 620 622 624 627 629 632 635 638 641 644 646 648 651 654 657 660 663 666 669 672 675 677 680 682 684 685 687 689 690 692 693 694 695 696 697 698 699 700 701 702 703 704 704 705 706 706 705 703 702 701 702 701 698 696 695 695 696 697 696 695 695 694 692 690
604 605 606 607 609 611 613 615 617 619 622 624 626 629 631 634 637 639 642 644 647 649 651 654 657 660 663 666 669 671 674 677 679 681 682 684 686 688 689 691 692 692 693 694 696 697 698 699 700 700 701 702 702 702 703 702 701 700 699 698 697 696 695 695 696 695 696 697 695 692 689 687 684 682
607 609 610 612 613 615 616 618 620 622 624 626 629 632 634 636 638 640 643 645 647 649 651 654 656 660 663 665 668 671 673 676 678 680 682 683 685 686 688 689 690 691 692 693 695 696 697 697 698 698 699 698 698 698 698 698 696 695 696 695 694 693 693 694 695 696 696 695 692 687 680 676 674 674
611 612 614 616 617 618 619 621 623 625 626 628 631 633 636 638 639 641 643 645 647 649 652 654 657 659 662 664 667 670 672 675 677 679 681 682 684 685 686 687 688 689 691 692 693 694 695 696 696 696 696 695 695 693 693 693 693 692 693 692 692 691 691 692 693 693 692 690 688 682 675 667 665 667
615 616 617 619 620 621 622 624 625 627 628 630 632 634 636 639 641 642 644 646 647 649 652 654 657 659 661 663 666 669 671 673 676 678 679 681 682 684 685 686 687 688 689 690 692 693 693 693 694 694 694 694 694 692 690 689 690 691 690 690 689 689 689 688 688 688 686 683 681 678 672 665 659 660
618 619 620 621 623 623 625 626 628 629 630 632 633 635 637 639 641 643 645 646 648 650 652 654 656 658 661 663 665 668 670 672 674 676 678 679 681 682 683 684 686 687 688 689 690 691 691 691 692 692 692 693 694 692 689 688 688 689 689 688 687 686 686 685 683 681 679 677 675 672 669 662 655 654
620 621 622 623 625 626 627 628 629 631 632 634 635 637 639 640 642 644 645 647 649 651 652 654 656 658 661 663 665 667 670 672 673 675 676 678 679 680 682 683 684 686 687 688 689 689 689 689 689 690 690 691 691 690 688 686 685 686 687 687 685 683 683 682 679 676 674 672 669 666 664 660 653 649
622 623 624 625 626 627 628 629 631 632 633 635 636 638 639 641 643 644 646 647 649 651 653 655 656 658 660 662 664 666 668 670 672 673 675 676 677 679 680 682 683 684 685 686 686 687 687 687 687 687 688 688 687 687 686 684 681 679 681 683 682 680 679 677 675 672 669 667 665 661 658 655 649 645
624 625 625 626 627 628 630 631 632 633 634 636 637 638 640 641 642 644 646 647 649 651 652 654 656 658 660 661 663 665 667 668 670 671 673 675 676 677 679 680 681 683 683 684 684 684 684 684 684 685 685 685 684 684 684 681 677 674 674 676 677 676 675 674 672 669 666 664 663 659 654 650 644 638
625 626 627 627 628 629 630 631 633 634 635 637 638 639 640 641 643 644 646 647 649 650 652 654 655 657 659 660 662 664 665 667 669 670 672 674 675 676 678 679 680 681 682 682 681 681 682 682 683 683 683 682 682 682 680 678 673 669 668 669 670 670 671 670 669 667 665 662 661 657 652 648 642 634
626 626 627 628 629 630 631 632 633 634 635 637 638 639 640 642 643 644 646 647 649 650 652 653 655 656 658 659 661 663 664 666 668 669 671 672 673 675 676 677 677 678 678 678 678 678 679 680 680 680 679 679 679 678 676 673 670 666 664 663 663 664 664 664 663 663 661 659 658 655 649 646 641 634
626 627 628 629 629 630 631 632 633 634 635 636 638 639 640 641 643 644 645 647 648 649 651 653 654 656 657 659 660 662 663 665 666 668 669 670 671 672 673 674 674 675 675 675 675 676 677 677 677 677 676 675 675 674 672 669 667 665 662 659 658 657 657 656 656 655 654 653 653 651 647 644 640 633
627 628 628 629 630 631 631 633 634 634 635 637 638 639 640 641 642 643 644 646 647 648 650 651 653 654 656 658 659 661 662 663 665 666 667 668 669 669 670 671 672 672 673 672 672 672 673 673 673 673 672 671 671 671 669 666 664 662 659 657 655 652 650 649 647 645 644 643 644 643 641 639 637 632
628 628 629 629 630 631 632 633 634 635 636 637 638 639 640 640 641 642 644 645 646 647 648 650 651 653 655 656 658 659 660 662 663 664 665 666 667 667 668 669 670 670 670 670 670 669 669 670 670 670 669 668 668 667 666 664 662 659 657 654 652 649 646 644 641 638 635 633 634 635 633 630 629 626